Stations météo

Publicité
Auch, France (7622): Température de l'air & dewpoint: 17.02.2017 01:00:00 - 23.02.2017 01:00:00 (CET)Auch, France (7622): Température de l'air 5cm: 17.02.2017 01:00:00 - 23.02.2017 01:00:00 (CET)Auch, France (7622): Température de l'air -20cm & Température de l'air -100cm: 17.02.2017 01:00:00 - 23.02.2017 01:00:00 (CET)Auch, France (7622): Vitesse du vent & gusts: 17.02.2017 01:00:00 - 23.02.2017 01:00:00 (CET)Auch, France (7622): Direction du vent: 17.02.2017 01:00:00 - 23.02.2017 01:00:00 (CET)Auch, France (7622): reduced air pressure: 17.02.2017 01:00:00 - 23.02.2017 01:00:00 (CET)Auch, France (7622): visibility: 17.02.2017 01:00:00 - 23.02.2017 01:00:00 (CET)Auch, France (7622): Ensoleillement: 17.02.2017 01:00:00 - 23.02.2017 01:00:00 (CET)Auch, France (7622): Quantités de précipitations: 17.02.2017 01:00:00 - 23.02.2017 01:00:00 (CET)
Date & Time tt [°C] td [°C] tt 5cm [°C] tt -20cm [°C] tt -100cm [°C] ff [km/h] ff [knt] fx [km/h] fx [knt] dd ppp [hPa] vv [km] sd [min] rr [mm]
23.02.2017 01:00:00 2,2 1,6 -1,8 9,4 9,7 0 0 4 2 N 1019,0 0,8 0 0,0
23.02.2017 00:00:00 2,9 2,3 -1,1 9,5 9,7 0 0 3 2 N 1019,3 1,5 0 0,0
22.02.2017 23:00:00 3,9 3,2 -0,8 9,5 9,7 0 0 0 0 N 1019,7 12 0 0,0
22.02.2017 22:00:00 4,7 3,8 0,2 9,6 9,7 0 0 3 2 N 1020,1 10 0 0,0
22.02.2017 21:00:00 6,3 5,1 1,0 9,5 9,7 0 0 0 0 N 1020,5 16 0 0,0
22.02.2017 20:00:00 8,2 6,2 2,4 9,5 9,7 0 0 3 1 N 1020,6 20 0 0,0
22.02.2017 19:00:00 11,8 7,9 6,3 9,3 9,7 0 0 8 5 N 1020,3 20 15 0,0
22.02.2017 18:00:00 16,2 8,9 17,3 9,1 9,7 5 3 9 5 NE 1020,1 20 60 0,0
22.02.2017 17:00:00 17,1 8,5 21,7 8,8 9,7 4 2 10 6 NNE 1020,4 20 60 0,0
22.02.2017 16:00:00 17,1 9,0 21,7 8,5 9,7 6 3 13 7 NNE 1020,9 20 60 0,0
22.02.2017 15:00:00 16,4 8,6 21,1 8,3 9,7 5 3 19 10 ENE 1021,4 20 60 0,0
22.02.2017 14:00:00 15,7 8,4 20,5 8,1 9,7 9 5 18 10 NNE 1022,4 20 60 0,0
22.02.2017 13:00:00 14,6 9,4 18,8 8,0 9,7 8 4 16 9 N 1023,3 18 60 0,0
22.02.2017 12:00:00 11,9 8,4 16,2 8,0 9,7 5 3 9 5 N 1024,1 18 60 0,0
22.02.2017 11:00:00 8,4 7,2 8,6 8,0 9,7 2 1 4 2 NE 1024,7 11 60 0,0
22.02.2017 10:00:00 5,1 5,1 4,0 8,0 9,7 3 2 8 4 S 1025,2 0,3 15 0,0
22.02.2017 09:00:00 3,1 3,0 1,9 8,2 9,7 4 2 6 4 SSW 1025,4 0,2 0 0,0
22.02.2017 08:00:00 1,6 1,3 -0,8 8,3 9,7 0 0 2 1 N 1025,1 10 0 0,0
22.02.2017 07:00:00 0,8 0,4 -1,8 8,4 9,7 2 1 3 2 S 1025,1 6 0 0,0
22.02.2017 06:00:00 1,4 0,8 -0,5 8,6 9,7 4 2 8 4 SW 1025,0 7 0 0,0
22.02.2017 05:00:00 1,7 1,1 -0,6 8,7 9,7 4 2 11 6 SSW 1025,1 8 0 0,0
22.02.2017 04:00:00 2,3 1,9 -0,8 8,8 9,7 6 4 10 5 SSW 1025,4 8 0 0,0
22.02.2017 03:00:00 2,2 1,6 -1,2 8,9 9,7 4 2 6 3 SW 1025,9 7 0 0,0
22.02.2017 02:00:00 2,8 2,2 -0,9 9,0 9,7 3 1 3 2 S 1026,2 9 0 0,0
22.02.2017 01:00:00 2,8 2,2 -0,8 9,1 9,7 0 0 3 1 N 1026,3 8 0 0,0
22.02.2017 00:00:00 3,6 3,0 -0,3 9,2 9,7 0 0 5 3 N 1026,1 9 0 0,0
21.02.2017 23:00:00 4,3 3,4 0,5 9,2 9,7 3 1 5 3 SSE 1026,1 15 0 0,0
21.02.2017 22:00:00 4,5 3,5 0,7 9,2 9,7 2 1 4 2 SSW 1026,0 20 0 0,0
21.02.2017 21:00:00 5,5 4,3 1,4 9,3 9,7 2 1 4 2 SSW 1026,0 20 0 0,0
21.02.2017 20:00:00 7,0 4,6 2,7 9,2 9,7 3 1 4 2 SSW 1025,8 20 0 0,0
21.02.2017 19:00:00 10,5 6,6 5,2 9,0 9,7 0 0 6 3 N 1025,5 20 0 0,0
21.02.2017 18:00:00 14,0 7,3 14,1 8,8 9,7 6 3 11 6 N 1025,1 20 57 0,0
21.02.2017 17:00:00 15,0 7,5 18,5 8,6 9,7 5 3 10 6 ENE 1025,0 20 60 0,0
21.02.2017 16:00:00 15,2 7,2 19,8 8,4 9,7 4 2 9 5 NNE 1025,3 20 60 0,0
21.02.2017 15:00:00 15,0 7,3 18,3 8,1 9,6 0 0 9 5 N 1026,1 20 60 0,0
21.02.2017 14:00:00 14,7 6,8 17,4 8,0 9,7 3 2 11 6 S 1026,7 20 58 0,0
21.02.2017 13:00:00 12,9 6,7 15,8 7,9 9,7 4 2 10 5 NW 1027,9 20 19 0,0
21.02.2017 12:00:00 12,2 6,0 13,6 7,9 9,7 0 0 5 3 N 1028,6 19 27 0,0
21.02.2017 11:00:00 9,0 5,6 8,2 8,0 9,7 3 2 13 7 SSW 1028,8 16 11 0,0
21.02.2017 10:00:00 5,8 4,3 4,7 8,0 9,7 7 4 14 7 S 1029,1 13 13 0,0
21.02.2017 09:00:00 3,0 2,3 1,3 8,1 9,7 10 5 11 6 SSW 1028,9 10 2 0,0
21.02.2017 08:00:00 1,1 0,7 -2,1 8,2 9,7 4 2 9 5 SSW 1028,8 9 0 0,0
21.02.2017 07:00:00 0,4 -0,2 -1,7 8,4 9,7 0 0 7 4 N 1028,6 6 0 0,0
21.02.2017 06:00:00 1,3 0,6 0,1 8,5 9,7 6 4 13 7 SSW 1028,6 8 0 0,0
21.02.2017 05:00:00 1,7 1,1 -1,3 8,6 9,7 10 5 12 7 SSW 1028,7 9 0 0,0
21.02.2017 04:00:00 1,6 0,9 -1,1 8,7 9,7 3 1 5 3 SSW 1029,1 7 0 0,0
21.02.2017 03:00:00 2,1 1,5 -0,9 8,8 9,7 0 0 8 4 N 1029,4 10 0 0,0
21.02.2017 02:00:00 2,2 1,6 -1,1 8,9 9,7 6 3 8 5 SSW 1029,3 9 0 0,0
21.02.2017 01:00:00 2,0 1,0 -0,3 9,0 9,7 3 2 7 4 SW 1029,5 8 0 0,0
21.02.2017 00:00:00 3,4 2,2 1,5 9,1 9,7 4 2 12 6 SSW 1029,6 10 0 0,0
20.02.2017 23:00:00 4,0 2,8 0,9 9,2 9,6 10 6 12 7 SSW 1029,7 11 0 0,0
20.02.2017 22:00:00 4,2 3,0 0,9 9,2 9,7 6 3 10 5 SSW 1029,8 13 0 0,0
20.02.2017 21:00:00 4,4 2,9 1,1 9,2 9,7 8 4 9 5 S 1029,5 17 0 0,0
20.02.2017 20:00:00 7,4 3,8 3,4 9,1 9,6 2 1 14 8 SSW 1029,1 20 0 0,0
20.02.2017 19:00:00 10,9 4,6 9,4 9,1 9,7 8 4 18 10 NNW 1028,5 20 0 0,0
20.02.2017 18:00:00 11,4 5,0 11,1 9,0 9,7 4 2 11 6 NW 1028,2 20 0 0,0
20.02.2017 17:00:00 11,8 5,6 12,0 8,9 9,7 7 4 13 7 NNW 1028,2 20 0 0,0
20.02.2017 16:00:00 12,3 4,8 13,3 8,7 9,6 6 3 13 7 NW 1028,2 20 0 0,0
20.02.2017 15:00:00 12,6 4,8 13,5 8,6 9,6 4 2 14 8 WSW 1028,3 20 10 0,0
20.02.2017 14:00:00 11,5 4,9 12,1 8,5 9,6 7 4 16 9 NW 1029,4 20 0 0,0
20.02.2017 13:00:00 11,2 4,6 12,4 8,5 9,7 8 4 13 7 NNW 1029,9 20 0 0,0
20.02.2017 12:00:00 11,1 5,8 11,1 8,4 9,6 5 3 9 5 NNW 1029,9 20 0 0,0
20.02.2017 11:00:00 9,8 7,0 10,0 8,4 9,6 0 0 5 3 N 1030,1 15 0 0,0
20.02.2017 10:00:00 8,4 6,9 7,9 8,4 9,6 0 0 3 2 N 1029,9 11 0 0,0
20.02.2017 09:00:00 7,2 6,5 6,5 8,5 9,6 0 0 7 4 N 1029,8 7 0 0,0
20.02.2017 08:00:00 6,7 6,0 6,0 8,5 9,6 0 0 5 3 N 1029,5 7 0 0,0
20.02.2017 07:00:00 6,4 5,7 5,8 8,6 9,6 3 2 9 5 N 1029,4 4,1 0 0,0
20.02.2017 06:00:00 6,9 6,2 4,7 8,7 9,6 4 2 6 3 S 1029,1 10 0 0,0
20.02.2017 05:00:00 6,0 5,6 1,4 8,8 9,6 0 0 8 4 N 1029,3 8 0 0,0
20.02.2017 04:00:00 6,6 5,7 1,8 8,9 9,6 3 1 14 8 W 1029,4 6 0 0,0
20.02.2017 03:00:00 7,1 6,2 4,1 9,0 9,6 10 6 21 11 W 1030,0 8 0 0,0
20.02.2017 02:00:00 6,3 5,6 3,9 9,1 9,6 6 3 15 8 SSW 1029,7 6 0 0,0
20.02.2017 01:00:00 6,7 5,6 4,6 9,2 9,6 5 3 13 7 SW 1029,7 10 0 0,0
20.02.2017 00:00:00 6,9 5,5 2,0 9,3 9,6 7 4 12 7 WSW 1029,6 16 0 0,0
19.02.2017 23:00:00 4,1 3,5 -0,7 9,4 9,6 8 5 11 6 S 1029,3 9 0 0,0
19.02.2017 22:00:00 4,2 3,5 -0,2 9,4 9,6 0 0 5 3 N 1029,0 11 0 0,0
19.02.2017 21:00:00 4,8 3,5 0,6 9,4 9,6 2 1 5 3 SSW 1028,6 10 0 0,0
19.02.2017 20:00:00 7,1 4,9 1,7 9,4 9,6 0 0 4 2 N 1028,1 16 0 0,0
19.02.2017 19:00:00 10,0 6,3 5,7 9,2 9,6 3 1 8 4 NW 1027,7 20 1 0,0
19.02.2017 18:00:00 12,2 7,7 11,5 9,0 9,6 6 3 16 9 WNW 1027,1 19 14 0,0
19.02.2017 17:00:00 14,1 8,1 16,2 8,9 9,6 12 6 18 10 WNW 1027,1 19 60 0,0
19.02.2017 16:00:00 15,0 9,1 15,9 8,7 9,6 11 6 24 13 NW 1027,1 16 48 0,0
19.02.2017 15:00:00 15,1 7,1 15,9 8,4 9,6 13 7 22 12 W 1027,0 20 42 0,0
19.02.2017 14:00:00 14,8 6,6 15,3 8,2 9,6 8 5 16 9 W 1027,4 20 40 0,0
19.02.2017 13:00:00 14,4 7,2 16,9 8,1 9,6 8 4 16 9 W 1027,9 20 54 0,0
19.02.2017 12:00:00 13,5 7,7 14,9 8,0 9,6 10 5 17 9 WSW 1028,6 19 58 0,0
19.02.2017 11:00:00 12,0 7,5 13,1 8,0 9,6 7 4 15 8 WSW 1028,6 17 42 0,0
19.02.2017 10:00:00 9,2 8,0 7,3 8,0 9,6 0 0 5 3 N 1028,5 8 25 0,0
19.02.2017 09:00:00 6,2 5,8 5,4 8,1 9,6 0 0 5 3 N 1028,3 8 0 0,0
19.02.2017 08:00:00 5,2 4,9 5,0 8,2 9,6 3 2 4 2 SSW 1027,5 6 0 0,0
19.02.2017 07:00:00 4,8 4,5 4,4 8,3 9,6 0 0 0 0 N 1027,0 7 0 0,0
19.02.2017 06:00:00 4,1 4,0 3,4 8,4 9,6 0 0 2 1 N 1026,6 3,4 0 0,0
19.02.2017 05:00:00 3,3 3,2 0,9 8,5 9,6 0 0 7 4 N 1025,8 0,4 0 0,0
19.02.2017 04:00:00 1,6 1,2 -2,6 8,6 9,6 6 3 11 6 S 1025,5 11 0 0,0
19.02.2017 03:00:00 0,7 0,1 -3,1 8,8 9,6 4 2 6 4 S 1025,4 10 0 0,0
19.02.2017 02:00:00 0,8 0,2 -2,7 8,9 9,6 4 2 5 3 SSW 1025,0 12 0 0,0
19.02.2017 01:00:00 1,7 0,8 -2,2 9,0 9,6 0 0 3 1 N 1024,7 13 0 0,0
19.02.2017 00:00:00 2,3 1,3 -1,6 9,1 9,6 0 0 2 1 N 1024,3 18 0 0,0
18.02.2017 23:00:00 3,1 1,8 -1,1 9,1 9,6 2 1 4 2 S 1023,7 20 0 0,0
18.02.2017 22:00:00 4,4 2,6 -0,3 9,1 9,6 0 0 4 2 N 1023,3 20 0 0,0
18.02.2017 21:00:00 5,9 3,7 0,4 9,1 9,6 2 1 4 2 S 1022,7 20 0 0,0
18.02.2017 20:00:00 7,8 3,8 2,3 9,0 9,6 2 1 4 2 S 1022,0 20 0 0,0
18.02.2017 19:00:00 13,0 4,4 8,3 8,9 9,6 4 2 10 5 NE 1021,2 20 9 0,0
18.02.2017 18:00:00 15,8 4,8 16,4 8,7 9,6 6 3 10 6 NE 1020,5 20 60 0,0
18.02.2017 17:00:00 16,6 3,3 19,5 8,5 9,5 6 4 13 7 NNE 1020,2 20 60 0,0
18.02.2017 16:00:00 17,1 3,7 21,6 8,2 9,5 8 4 17 9 NNE 1020,1 20 60 0,0
18.02.2017 15:00:00 17,0 4,0 21,8 8,1 9,5 9 5 16 9 N 1020,2 20 60 0,0
18.02.2017 14:00:00 16,4 5,6 20,1 7,9 9,5 5 3 14 7 NE 1020,9 20 60 0,0
18.02.2017 13:00:00 15,7 6,1 20,2 7,9 9,5 6 3 13 7 NE 1021,7 20 60 0,0
18.02.2017 12:00:00 12,8 7,0 15,4 7,9 9,5 3 2 7 4 N 1022,7 19 60 0,0
18.02.2017 11:00:00 8,5 5,4 12,4 7,9 9,5 4 2 7 4 N 1023,1 17 60 0,0
18.02.2017 10:00:00 5,3 3,8 3,7 8,1 9,5 0 0 5 3 N 1023,4 18 60 0,0
18.02.2017 09:00:00 0,6 0,2 -3,5 8,2 9,5 2 1 3 1 S 1023,6 10 18 0,0
18.02.2017 08:00:00 -0,4 -1,0 -3,5 8,3 9,5 0 0 3 2 N 1023,4 3,1 0 0,0
18.02.2017 07:00:00 0,5 -0,2 -2,2 8,5 9,5 2 1 10 6 SW 1023,4 9 0 0,0
18.02.2017 06:00:00 0,5 -0,1 -2,5 8,6 9,5 5 3 8 5 SSW 1023,6 11 0 0,0
18.02.2017 05:00:00 1,1 0,7 -2,4 8,8 9,5 3 1 6 4 SSW 1023,8 10 0 0,0
18.02.2017 04:00:00 1,0 0,3 -2,4 8,9 9,5 2 1 4 2 SW 1024,3 8 0 0,0
18.02.2017 03:00:00 2,1 1,5 -2,0 9,0 9,5 2 1 3 2 S 1024,8 11 0 0,0
18.02.2017 02:00:00 1,8 1,1 -1,9 9,1 9,5 3 2 4 2 S 1025,2 6 0 0,0
18.02.2017 01:00:00 2,8 2,1 -1,0 9,2 9,5 0 0 4 2 N 1025,5 11 0 0,0
18.02.2017 00:00:00 3,4 2,5 -0,2 9,4 9,5 3 1 4 2 S 1025,7 14 0 0,0
17.02.2017 23:00:00 3,5 2,5 -0,1 9,4 9,5 3 2 4 2 S 1026,0 20 0 0,0
17.02.2017 22:00:00 4,8 3,6 0,4 9,5 9,5 0 0 3 2 N 1026,2 20 0 0,0
17.02.2017 21:00:00 5,9 4,1 1,3 9,4 9,5 0 0 3 1 N 1026,2 20 0 0,0
17.02.2017 20:00:00 7,5 4,6 2,3 9,4 9,5 0 0 3 2 N 1026,0 20 0 0,0
17.02.2017 19:00:00 11,2 6,3 5,2 9,3 9,5 0 0 6 3 N 1025,7 20 8 0,0
17.02.2017 18:00:00 16,2 5,5 16,3 9,1 9,4 5 3 11 6 N 1025,3 20 60 0,0
17.02.2017 17:00:00 17,1 6,0 20,1 8,8 9,4 7 4 16 8 N 1025,3 20 60 0,0
17.02.2017 16:00:00 17,6 5,8 22,1 8,6 9,4 8 4 14 8 N 1025,6 20 60 0,0
17.02.2017 15:00:00 17,3 3,9 22,3 8,5 9,4 6 3 13 7 N 1026,3 20 60 0,0
17.02.2017 14:00:00 16,4 5,6 21,2 8,3 9,4 6 3 14 8 N 1027,1 20 60 0,0
17.02.2017 13:00:00 15,2 6,5 19,9 8,2 9,4 5 3 12 7 NNE 1028,1 20 60 0,0
17.02.2017 12:00:00 13,3 5,2 17,3 8,3 9,4 5 3 8 4 N 1028,8 20 60 0,0
17.02.2017 11:00:00 11,3 4,3 11,4 8,4 9,4 0 0 9 5 N 1029,0 19 60 0,0
17.02.2017 10:00:00 5,9 3,4 5,2 8,5 9,4 7 4 10 5 S 1029,4 20 60 0,0
17.02.2017 09:00:00 2,3 1,9 -2,6 8,7 9,4 6 3 9 5 SSW 1029,7 19 45 0,0
17.02.2017 08:00:00 0,2 -0,2 -3,2 8,8 9,4 4 2 5 3 SSW 1029,8 14 0 0,0
17.02.2017 07:00:00 0,4 0,0 -3,1 9,0 9,4 0 0 2 1 N 1029,9 9 0 0,0
17.02.2017 06:00:00 0,5 0,1 -3,0 9,1 9,4 0 0 3 1 N 1029,9 12 0 0,0
17.02.2017 05:00:00 0,9 0,5 -2,7 9,3 9,4 0 0 2 1 N 1029,8 10 0 0,0
17.02.2017 04:00:00 1,5 0,9 -1,9 9,5 9,4 0 0 5 3 N 1030,0 7 0 0,0
17.02.2017 03:00:00 2,0 1,4 -1,7 9,6 9,4 3 2 5 3 SW 1030,2 11 0 0,0
17.02.2017 02:00:00 2,6 1,9 -1,0 9,7 9,3 3 2 4 2 SSW 1030,5 8 0 0,0
17.02.2017 01:00:00 3,5 3,1 -0,7 9,8 9,4 3 2 5 3 SSW 1030,9 13 0 0,0

tt = Température de l'air
td = dewpoint
tt 5cm = Température de l'air 5cm
tt -20cm = Température de l'air -20cm
tt -100cm = Température de l'air -100cm
ff = Vitesse du vent
fx = gusts
dd = Direction du vent
ppp = reduced air pressure
vv = visibility
sd = Ensoleillement
rr = Quantités de précipitations

stations d'obs. à proximité